Probability
0 0 0 0 0 0 0 0 0 0 0 1 2 3 3 2 1 0 0 0 0 0 0 0 0 0 0 0 0 0 0 0 0 1 2 3 3 4 4 4 4 4 5
0 0 0 0 0 0 0 0 0 0 1 2 3 3 3 3 1 0 0 0 0 0 0 0 0 0 0 0 0 0 0 0 0 1 3 3 3 3 3 4 4 4 4
0 0 0 0 0 0 0 0 0 1 2 3 3 3 3 3 2 0 0 0 0 0 0 0 0 0 0 0 0 0 0 0 0 1 3 3 2 1 3 4 4 5 4
0 0 0 0 0 0 0 0 1 2 3 3 3 3 3 2 1 0 0 0 0 0 0 0 0 0 0 0 0 0 0 0 0 0 2 2 1 1 3 3 4 5 6
0 0 0 0 0 0 0 0 1 2 3 3 3 2 1 1 0 0 0 0 0 0 0 0 0 0 0 0 0 0 0 0 0 1 2 2 2 3 3 3 5 6 7
0 0 0 0 0 0 0 0 1 2 2 2 1 1 0 0 0 0 0 0 0 0 0 0 0 0 0 0 0 0 0 0 0 1 2 2 3 4 4 4 5 7 8
0 0 0 0 0 0 0 0 0 1 1 1 0 0 0 0 0 0 0 0 0 0 0 0 0 0 0 0 0 0 0 0 0 1 2 2 3 3 3 3 4 5 6
0 0 0 0 0 0 0 0 0 0 0 0 0 0 0 0 0 0 0 0 0 0 0 0 0 0 0 0 0 0 0 0 0 0 1 1 2 1 1 1 2 2 2
0 0 0 0 0 0 0 0 0 0 0 0 0 0 0 0 0 0 0 0 0 0 0 0 0 0 0 0 0 0 0 0 0 0 0 0 0 1 1 1 0 0 0
0 0 0 0 0 0 0 0 0 0 0 0 0 0 0 0 0 0 0 0 0 0 0 0 0 0 0 0 0 0 0 0 0 0 0 0 0 1 2 2 1 0 0
0 0 0 0 0 0 0 0 0 0 0 0 0 0 0 0 0 0 0 0 0 0 0 0 0 0 0 0 0 0 0 0 0 0 0 0 0 0 1 1 1 1 0
0 0 0 0 0 0 0 0 0 0 0 0 0 0 0 0 0 0 0 0 0 0 0 0 0 0 0 0 0 0 0 0 0 0 0 0 0 0 0 1 1 1 0
0 0 0 0 0 0 0 0 0 0 0 0 0 0 0 0 0 0 0 0 0 0 0 0 0 0 0 0 0 0 0 0 0 0 0 0 0 0 0 0 0 0 0
0 0 0 0 0 0 0 0 0 0 0 0 0 0 0 0 0 0 0 0 0 0 0 0 0 0 0 0 0 0 0 0 0 0 0 0 0 0 0 0 0 0 0
0 0 0 0 0 0 0 0 0 0 0 0 0 0 0 0 0 0 0 0 0 0 0 0 0 0 1 1 0 0 0 0 0 0 0 0 0 0 0 0 0 0 0
0 0 0 0 0 0 0 0 0 0 0 0 0 0 0 0 0 0 0 0 0 0 0 0 0 0 1 1 0 0 0 0 0 0 0 0 0 0 0 0 0 0 0
0 0 0 0 0 0 0 0 0 0 0 0 0 0 0 0 0 0 0 0 0 0 0 0 0 0 1 1 0 0 0 0 0 0 0 0 0 0 0 0 0 0 0
0 0 0 0 0 0 0 0 0 0 0 0 0 0 0 0 0 0 0 0 0 0 0 0 0 0 0 0 0 0 0 0 0 0 0 0 0 0 0 0 0 0 0
0 0 0 0 0 0 0 0 0 0 0 0 0 0 0 0 0 0 0 0 0 0 0 0 0 0 0 0 0 0 0 0 0 0 0 0 0 0 0 0 0 0 0
0 0 0 0 0 0 0 0 0 0 0 0 0 0 0 0 0 0 0 0 0 0 0 0 0 0 0 0 0 0 0 0 0 0 0 0 0 0 0 0 0 0 0
0 0 0 0 0 0 0 0 0 0 0 0 0 0 0 0 0 0 0 0 0 0 0 0 0 0 0 0 0 0 0 0 0 0 0 0 0 0 0 0 0 0 0
1 1 1 0 0 0 0 0 0 0 0 0 0 0 0 0 0 0 0 0 0 0 0 0 0 0 0 0 0 0 0 0 0 0 0 0 0 0 0 0 0 0 0
5 4 3 2 1 0 0 0 0 0 0 0 0 0 0 0 0 0 0 0 0 0 0 0 0 0 0 0 0 0 0 0 0 0 0 0 0 0 0 0 0 0 0
8 7 6 5 4 2 1 0 0 0 0 0 0 0 0 0 0 0 0 0 0 0 0 0 0 0 0 0 0 0 0 0 0 0 0 0 0 0 0 0 0 0 0
7 7 7 6 6 4 2 1 0 0 0 0 0 0 0 0 0 0 0 0 0 0 0 0 0 0 0 0 0 0 0 0 0 0 0 0 0 0 0 0 0 0 0
5 6 6 6 6 5 3 2 1 0 0 0 0 0 0 0 0 0 0 0 0 0 0 0 0 0 0 0 0 0 0 0 0 0 0 0 0 0 0 0 0 0 0
Wind_Speed
2 1 2 2 2 2 2 2 3 4 4 4 5 6 6 5 5 5 4 10 10 10 11 11 11 11 11 10 10 10 9 9 8 7 7 6 6 5 4 4 4 5 5
2 2 3 3 2 2 2 2 4 3 4 4 5 5 5 4 4 5 4 6 11 11 12 12 12 11 11 11 11 11 11 11 10 8 8 8 7 6 4 5 5 5 5
3 3 3 2 2 3 3 3 4 4 4 4 5 5 4 5 4 4 5 4 5 9 12 13 13 12 12 12 12 12 12 12 11 10 10 9 9 8 7 7 6 6 6
4 3 3 2 3 3 3 3 4 4 4 4 4 4 4 4 5 5 4 4 3 4 7 12 12 13 14 13 13 13 13 13 12 12 11 11 11 11 10 8 7 7 7
4 4 2 2 3 3 3 4 4 3 3 3 3 3 3 4 4 5 5 5 4 4 4 7 11 12 13 14 14 14 13 13 12 12 12 12 12 11 10 10 9 9 9
4 3 2 3 4 3 3 3 3 3 2 2 3 4 3 3 3 4 4 4 4 5 4 5 4 7 12 13 13 14 14 13 12 12 12 12 12 11 11 11 10 10 10
3 3 3 4 4 3 3 3 3 2 2 1 2 2 2 3 3 3 3 3 4 4 4 4 4 3 4 10 12 13 13 13 13 12 12 12 12 12 12 11 10 10 10
3 3 3 3 3 3 3 3 3 2 1 1 1 1 1 2 2 2 2 3 3 3 4 5 5 4 4 3 7 12 12 12 12 12 12 11 12 11 11 11 11 11 10
3 3 3 3 2 3 2 2 2 2 1 2 2 2 2 1 0 1 2 3 3 3 3 3 5 5 6 4 4 8 12 12 11 11 11 11 11 11 11 11 10 10 10
3 3 3 2 3 3 3 2 2 2 2 1 2 2 2 2 2 0 1 2 3 3 3 3 4 4 5 4 6 9 11 11 11 11 10 10 10 10 10 10 10 10 10
2 2 2 2 3 3 2 2 3 2 1 1 1 1 2 2 1 2 1 0 1 1 2 2 2 3 3 3 3 7 10 10 11 11 11 11 11 10 10 10 10 9 9
2 2 2 2 2 2 2 2 2 2 1 2 2 2 1 1 1 1 1 1 1 0 1 2 2 2 2 3 4 8 8 9 10 11 11 11 11 10 10 9 9 9 8
2 1 2 2 2 2 2 2 1 2 2 1 2 2 2 1 1 1 1 0 0 0 1 1 1 1 2 2 2 5 6 7 8 9 10 10 10 10 9 9 9 8 8
2 3 2 3 3 2 2 2 2 2 2 2 2 2 1 2 2 1 1 1 1 1 1 1 1 1 1 2 2 3 3 5 6 7 7 8 8 9 9 8 8 8 8
2 3 3 4 3 2 2 2 1 2 2 2 2 2 1 1 2 2 2 1 2 1 1 0 1 0 1 2 1 1 2 3 4 4 5 5 6 6 6 7 7 7 7
2 2 2 3 3 3 2 2 1 1 2 2 1 2 2 2 2 2 2 2 2 1 0 0 0 1 1 1 2 0 2 3 2 1 2 3 4 4 4 5 5 6 6
2 2 2 2 3 3 3 2 1 1 1 1 1 2 2 2 2 1 2 2 2 2 1 1 1 1 2 1 1 1 1 1 1 2 1 1 2 2 2 2 3 4 5
2 2 2 2 2 2 2 2 2 1 1 1 1 2 2 2 2 2 1 2 1 1 1 1 2 2 1 0 0 1 1 1 1 2 3 2 2 2 2 1 2 3 4
2 2 3 2 2 1 2 1 2 1 1 1 1 2 2 2 1 1 1 1 1 1 1 1 1 1 1 1 1 2 2 2 2 1 3 4 4 4 3 3 2 3 3
2 2 2 3 2 2 1 1 1 1 1 1 2 2 2 2 2 2 1 1 1 1 1 1 1 1 1 1 1 1 3 2 2 2 2 2 4 5 5 5 4 4 4
1 1 2 2 2 2 1 2 1 1 1 1 2 2 3 4 5 3 2 2 2 1 1 1 1 1 2 2 1 1 2 3 3 1 1 2 1 2 3 5 6 6 6
1 1 2 3 2 2 4 4 2 1 1 1 1 2 2 3 3 3 3 2 2 1 0 1 1 1 2 2 1 1 2 2 3 2 1 3 1 2 3 3 4 6 7
2 2 2 3 2 2 3 2 2 1 0 1 1 1 1 2 2 1 0 0 1 1 1 1 0 1 1 2 2 2 2 2 3 3 2 3 2 3 3 3 4 5 5
3 2 2 3 3 2 2 1 2 1 0 1 1 1 1 2 3 2 1 1 1 1 2 2 2 2 1 1 1 1 2 3 3 3 1 2 3 3 4 2 4 4 4
3 2 2 3 3 2 2 1 0 0 0 0 2 3 2 2 4 4 2 1 1 2 2 1 1 2 2 2 2 2 2 2 3 3 2 1 2 3 3 2 3 5 5
3 3 3 3 3 3 2 2 1 0 0 0 2 3 4 3 4 4 2 1 2 2 3 3 2 3 2 2 2 0 0 1 2 3 3 2 2 3 4 3 3 3 4
Wind_Direction
70 71 86 76 68 69 71 46 54 53 52 45 50 56 59 63 76 81 74 68 61 54 50 49 53 53 53 51 47 44 38 35 36 38 31 28 25 23 32 39 44 48 56
76 60 73 72 65 60 63 67 67 60 61 57 54 55 52 54 67 85 88 75 66 62 56 53 55 54 52 50 45 42 39 38 38 39 35 30 24 26 45 54 53 55 58
74 63 58 66 68 66 59 55 61 58 67 66 62 59 53 46 50 72 82 79 73 68 63 56 55 53 51 50 47 43 41 41 42 44 40 37 33 42 57 59 61 64 63
81 72 59 56 62 70 67 66 60 60 61 59 55 50 52 46 45 54 71 72 67 69 65 63 59 56 52 48 46 43 41 42 45 46 45 42 40 50 57 57 62 66 67
70 79 61 53 62 57 54 68 65 64 69 71 80 68 62 54 45 51 55 64 65 64 65 64 63 59 53 47 44 42 40 42 47 49 47 44 44 49 54 57 63 66 66
51 74 77 61 65 65 59 70 73 70 70 71 78 76 76 77 58 48 50 52 57 63 62 66 62 56 54 47 41 40 40 43 49 52 48 45 45 47 53 58 61 65 64
40 60 67 68 61 70 71 79 74 66 55 77 73 67 63 67 69 63 50 48 51 51 54 55 58 60 55 49 41 39 39 43 49 51 49 46 45 47 51 55 59 62 61
38 51 69 87 82 78 70 70 74 56 14 41 83 94 83 37 23 65 64 56 50 43 46 49 48 55 58 53 43 40 37 39 45 48 48 48 46 47 51 54 54 55 55
47 37 51 69 89 92 93 89 72 67 19 351 40 68 94 107 353 24 60 67 57 44 39 43 48 49 53 52 43 35 37 34 41 44 47 49 49 47 50 53 55 55 54
64 47 45 62 78 84 90 84 87 68 58 6 1 23 65 118 127 88 3 61 73 60 47 46 45 46 57 58 50 42 39 34 36 40 44 48 50 50 51 52 54 54 54
83 76 52 53 69 82 88 79 72 62 47 43 25 13 18 20 60 121 138 49 47 64 71 62 60 47 58 63 58 44 43 37 37 38 41 44 46 49 51 53 53 53 55
95 94 91 69 73 78 72 74 86 94 68 43 28 24 37 34 17 57 94 127 123 106 88 73 71 63 69 70 59 55 49 44 42 40 40 41 42 42 43 45 47 49 51
119 117 100 89 79 80 78 61 55 69 89 76 54 35 27 18 42 46 65 53 102 164 94 69 85 85 81 86 70 69 58 53 47 44 42 39 38 36 35 35 38 40 39
145 141 124 107 88 74 80 64 43 40 49 67 69 72 42 21 32 48 73 73 32 32 68 81 50 90 85 91 76 92 82 68 57 47 44 39 35 33 33 32 33 33 29
138 130 128 118 110 90 75 73 62 50 48 53 49 58 63 50 32 27 34 68 101 65 353 49 51 78 111 112 87 106 127 88 72 47 39 36 31 27 28 28 27 28 25
121 123 129 129 126 123 100 75 46 48 77 78 67 54 40 37 36 29 22 22 51 99 82 340 113 188 114 98 110 90 143 127 113 79 26 25 21 15 18 19 19 20 19
136 144 129 128 130 129 124 120 100 38 56 77 76 84 67 48 43 26 24 28 31 58 68 334 15 40 80 59 70 303 198 182 191 189 237 342 354 349 352 359 5 7 5
158 156 136 113 102 110 123 122 127 117 75 64 62 84 96 83 60 36 33 29 32 52 88 14 346 3 13 8 81 292 301 243 214 211 220 238 262 275 286 298 329 342 347
156 147 125 120 117 103 96 115 145 151 134 115 93 86 79 75 67 43 53 34 11 38 64 85 334 332 330 349 28 332 315 304 292 253 225 233 242 250 257 258 278 298 314
145 153 137 127 116 94 65 49 63 99 118 106 94 96 80 75 63 32 45 25 28 34 30 42 339 324 312 321 49 334 332 317 303 298 282 245 238 248 252 256 258 267 277
90 97 110 104 93 89 54 45 9 18 88 89 87 97 100 91 78 64 60 30 34 39 25 23 338 344 333 347 329 308 322 312 307 300 313 294 263 259 251 250 252 260 265
112 89 101 107 97 74 66 60 30 2 42 80 93 93 113 107 90 80 74 67 76 87 34 24 353 345 325 330 328 335 327 338 320 317 342 299 290 275 261 239 246 250 256
137 133 124 121 117 99 85 55 9 335 40 86 91 95 83 93 116 157 225 292 319 265 201 172 209 277 298 314 336 341 334 318 284 287 340 299 298 293 284 285 274 263 261
159 165 163 147 133 126 110 62 343 290 221 149 122 115 96 69 31 32 43 45 336 293 241 204 211 244 273 317 335 310 295 311 301 308 344 291 300 299 300 299 297 292 283
158 165 164 153 147 152 151 140 26 274 262 138 83 63 81 79 31 27 28 9 342 329 309 284 253 265 291 319 352 15 346 349 321 308 324 309 304 308 301 301 308 301 292
164 162 152 156 158 153 160 157 157 143 291 70 95 79 65 67 40 32 37 29 3 331 334 330 322 311 309 309 322 188 244 320 318 308 328 348 327 343 320 307 330 327 311